Accueil
METAR-TAF:

METAR-TAF

Aéroports :

Diepholz, Allemagne

latitude: 52-35N, longitude: 008-21E, altitude: 39 m

Observation

Le bulletin a été fait il y a 34 minutes, à 04:20 UTC
Vent 3 kt de est
Température 5°C
Humidité 100%
Pression 1019 hPa
Visibilité: 0050 m
brouillard

METAR: ETND 280420Z 10003KT 0050 FG 05/05 Q1019 RED

Heure: 06:54 (04:54 UTC)


TAF: absent

Observations et prévisions météorologiques de plus de 4000 aéroports (messages METAR et TAF).

Les stations disponibles sont représentées par des disques jaunes et rouges sur la carte.

Passer la souris dessus pour voir le nom de la station.

Cliquer dessus pour voir les observations et prévisions météorologiques.

Pour changer de carte: cliquez sur les boutons verts avec une croix noire pour zoomer, sur le bouton vert avec un tiret pour effectuer un zoom arrière, ou sur les flèches vertes pour les cartes adjacentes.


METAR-TAF: